Regional Weather Roundup
Issued by NWS

Home | Current Version | Previous Version | Graphics & Text | Print | Product List | Glossary On
Versions: 1 2 3 4 5 6 7 8 9 10 11 12 13 14 15 16 17 18 19 20 21 22 23 24 25 26 27 28 29 30 31 32 33 34 35 36 37 38 39 40 41 42 43 44 45 46 47 48 49 50
013
ASUS45 KCYS 182310
RWRWY

WYOMING REGIONAL WEATHER ROUNDUP
NATIONAL WEATHER SERVICE CHEYENNE WY
500 PM MDT FRI AUG 18 2017

NOTE:  "FAIR" INDICATES FEW OR NO CLOUDS BELOW 12,000 FEET
WITH NO SIGNIFICANT WEATHER AND/OR OBSTRUCTIONS TO VISIBILITY.

WYZ001-190000-
YELLOWSTONE NATIONAL PARK

CITY           SKY/WX    TMP DP  RH WIND       PRES   REMARKS
LK YELLOWSTONE   N/A     71  27  19 W9        30.32S
W YELLOWSTONE  NOT AVBL

$$
WYZ002>013-054>058-071-098>099-190000-
NORTHERN WYOMING

CITY           SKY/WX    TMP DP  RH WIND       PRES   REMARKS
JACKSON        FAIR      79  29  16 NW3       30.21
CODY           FAIR      87  35  15 SW8       30.05F
GREYBULL       FAIR      91  33  12 VRB5      29.96F
WORLAND        FAIR      90  28  11 E8        29.98F
SHERIDAN       FAIR      91  37  15 N8        29.98F
BUFFALO        FAIR      88  30  12 N7        30.06F
GILLETTE       FAIR      87  28  12 VRB6      30.01F
HULETT         FAIR      86  34  15 NW6       30.03F
NEWCASTLE      FAIR      84  30  14 CALM      30.04S

$$
WYZ014>020-022>026-101>103-190000-
CENTRAL WYOMING

CITY           SKY/WX    TMP DP  RH WIND       PRES   REMARKS
BIG PINEY      FAIR      80  34  19 W14       30.24F
PINEDALE       FAIR      79  27  14 NW17      30.25F
DUBOIS         FAIR      77  23  13 NW10G23   30.23S
LANDER           N/A    N/A N/A N/A MISG      30.07F
RIVERTON       FAIR      86  28  12 E6        30.09F
CASPER         FAIR      86  30  13 SW12G22   30.09F
DOUGLAS        FAIR      86  36  16 NW8       30.08F

$$
WYZ021-027>030-104>119-190000-
SOUTHERN WYOMING

CITY           SKY/WX    TMP DP  RH WIND       PRES   REMARKS
EVANSTON       FAIR      81  32  17 W20G28    30.29F
KEMMERER         N/A    N/A N/A N/A W24G31    30.29S
FORT BRIDGER   FAIR      84  27  12 W14G25    30.29F
ROCK SPRINGS   FAIR      83  26  12 W16G23    30.22F
RAWLINS        FAIR      82  27  13 W15G24    30.22F
SARATOGA       FAIR      79  30  17 NW8       30.27F
LARAMIE        FAIR      79  28  15 W15G24    30.26F
CHEYENNE       FAIR      85  32  15 VRB7      30.18F
TORRINGTON     FAIR      88  37  16 SE8       30.03F
PINE BLUFFS    FAIR      82  37  20 CALM      30.12F

$$




USA.gov is the U.S. government's official web portal to all federal, state and local government web resources and services.